Location: Cantaing
(50.1487°N, 3.1675°E)
Time: 06:36:18
(UTC+00:00)

Cosmos 44 - Pass Details

Date: 14 January 2026
Orbit: 570 x 780 km, 65.1° (Epoch: 10 February)

Event Time Altitude Azimuth Distance (km) Brightness Sun altitude
Exits shadow 06:44:48 10° 310° (NW) 2,337 5.4 -8.8°
Reaches altitude 10° 06:44:52 10° 310° (NW) 2,312 5.4 -8.8°
Maximum altitude 06:49:52 42° 241° (WSW) 1,097 4.1 -8.1°
Drops below altitude 10° 06:54:54 10° 171° (S) 2,325 6.5 -7.3°
Sets 06:57:24 0° 165° (SSE) 3,242 7.4 -7.0°
